Time,TemperatureF,DewpointF,PressureIn,WindDirection,WindDirectionDegrees,WindSpeedMPH,WindSpeedGustMPH,Humidity,HourlyPrecipIn,Conditions,Clouds,dailyrainin,SoftwareType,DateUTC
2013-03-17 00:03:00,27.6,22.0,30.01,SW,221,4.0,-999.0,80,-99.99,,,0.00,weatherlink.com 1.10,2013-03-17 04:03:00,
2013-03-17 00:18:00,27.6,23.0,30.01,SSW,206,0.0,-999.0,81,-99.99,,,0.00,weatherlink.com 1.10,2013-03-17 04:18:00,
2013-03-17 00:33:00,27.6,23.0,30.01,SSW,207,0.0,-999.0,81,-99.99,,,0.00,weatherlink.com 1.10,2013-03-17 04:33:00,
2013-03-17 00:48:00,27.6,23.0,30.00,SSW,207,0.0,-999.0,81,-99.99,,,0.00,weatherlink.com 1.10,2013-03-17 04:48:00,
2013-03-17 01:03:00,27.8,23.0,30.01,SSW,207,3.0,-999.0,81,-99.99,,,0.00,weatherlink.com 1.10,2013-03-17 05:03:00,
2013-03-17 01:18:00,27.8,23.0,30.01,SSW,207,0.0,-999.0,81,-99.99,,,0.00,weatherlink.com 1.10,2013-03-17 05:18:00,
2013-03-17 01:33:00,27.8,23.0,30.01,SSW,207,2.0,-999.0,81,-99.99,,,0.00,weatherlink.com 1.10,2013-03-17 05:33:00,
2013-03-17 01:48:00,27.9,23.0,30.01,SSW,208,0.0,-999.0,81,-99.99,,,0.00,weatherlink.com 1.10,2013-03-17 05:48:00,
2013-03-17 02:03:00,28.2,23.0,30.02,West,268,1.0,-999.0,80,-99.99,,,0.00,weatherlink.com 1.10,2013-03-17 06:03:00,
2013-03-17 02:18:00,28.5,23.0,30.03,West,277,5.0,-999.0,80,-99.99,,,0.00,weatherlink.com 1.10,2013-03-17 06:18:00,
2013-03-17 02:33:00,28.2,22.0,30.04,WNW,298,5.0,-999.0,79,-99.99,,,0.00,weatherlink.com 1.10,2013-03-17 06:33:00,
2013-03-17 02:48:00,27.0,20.0,30.04,NW,304,3.0,-999.0,76,-99.99,,,0.00,weatherlink.com 1.10,2013-03-17 06:48:00,
2013-03-17 03:03:00,26.4,20.0,30.05,NW,318,6.0,-999.0,77,-99.99,,,0.00,weatherlink.com 1.10,2013-03-17 07:03:00,
2013-03-17 03:18:00,25.7,18.0,30.05,NNW,330,5.0,-999.0,74,-99.99,,,0.00,weatherlink.com 1.10,2013-03-17 07:18:00,
2013-03-17 03:33:00,25.4,19.0,30.06,NW,306,5.0,-999.0,75,-99.99,,,0.00,weatherlink.com 1.10,2013-03-17 07:33:00,
2013-03-17 03:48:00,24.5,17.0,30.06,NW,320,5.0,-999.0,74,-99.99,,,0.00,weatherlink.com 1.10,2013-03-17 07:48:00,
2013-03-17 04:03:00,23.8,17.0,30.06,NNW,342,3.0,-999.0,75,-99.99,,,0.00,weatherlink.com 1.10,2013-03-17 08:03:00,
2013-03-17 04:18:00,23.5,17.0,30.07,NW,324,2.0,-999.0,76,-99.99,,,0.00,weatherlink.com 1.10,2013-03-17 08:18:00,
2013-03-17 04:33:00,23.0,17.0,30.07,NNW,327,2.0,-999.0,76,-99.99,,,0.00,weatherlink.com 1.10,2013-03-17 08:33:00,
2013-03-17 04:48:00,22.2,16.0,30.06,NW,323,1.0,-999.0,77,-99.99,,,0.00,weatherlink.com 1.10,2013-03-17 08:48:00,
2013-03-17 05:03:00,21.8,16.0,30.06,NW,321,3.0,-999.0,78,-99.99,,,0.00,weatherlink.com 1.10,2013-03-17 09:03:00,
2013-03-17 05:18:00,21.3,15.0,30.06,NNW,346,1.0,-999.0,78,-99.99,,,0.00,weatherlink.com 1.10,2013-03-17 09:18:00,
2013-03-17 05:33:00,20.5,15.0,30.06,NNW,346,0.0,-999.0,79,-99.99,,,0.00,weatherlink.com 1.10,2013-03-17 09:33:00,
2013-03-17 05:48:00,20.3,15.0,30.07,NNW,346,0.0,-999.0,81,-99.99,,,0.00,weatherlink.com 1.10,2013-03-17 09:48:00,
2013-03-17 06:03:00,19.5,15.0,30.08,NNW,346,0.0,-999.0,81,-99.99,,,0.00,weatherlink.com 1.10,2013-03-17 10:03:00,
2013-03-17 06:18:00,18.8,14.0,30.09,NNW,346,0.0,-999.0,82,-99.99,,,0.00,weatherlink.com 1.10,2013-03-17 10:18:00,
2013-03-17 06:33:00,18.8,15.0,30.10,NNW,346,0.0,-999.0,83,-99.99,,,0.00,weatherlink.com 1.10,2013-03-17 10:33:00,
2013-03-17 06:48:00,18.6,15.0,30.10,NNW,346,0.0,-999.0,84,-99.99,,,0.00,weatherlink.com 1.10,2013-03-17 10:48:00,
2013-03-17 07:03:00,18.1,14.0,30.12,NNW,346,0.0,-999.0,85,-99.99,,,0.00,weatherlink.com 1.10,2013-03-17 11:03:00,
2013-03-17 07:18:00,17.5,14.0,30.12,NNW,346,0.0,-999.0,85,-99.99,,,0.00,weatherlink.com 1.10,2013-03-17 11:18:00,
2013-03-17 07:33:00,17.3,14.0,30.13,NNW,346,0.0,-999.0,86,-99.99,,,0.00,weatherlink.com 1.10,2013-03-17 11:33:00,
2013-03-17 07:48:00,18.0,15.0,30.14,North,349,3.0,-999.0,87,-99.99,,,0.00,weatherlink.com 1.10,2013-03-17 11:48:00,
2013-03-17 08:03:00,20.6,17.0,30.15,North,11,6.0,-999.0,84,-99.99,,,0.00,weatherlink.com 1.10,2013-03-17 12:03:00,
2013-03-17 08:18:00,21.6,16.0,30.16,North,9,7.0,-999.0,80,-99.99,,,0.00,weatherlink.com 1.10,2013-03-17 12:18:00,
2013-03-17 08:33:00,21.9,16.0,30.17,NNE,20,6.0,-999.0,77,-99.99,,,0.00,weatherlink.com 1.10,2013-03-17 12:33:00,
2013-03-17 08:48:00,22.1,16.0,30.18,NNE,15,5.0,-999.0,76,-99.99,,,0.00,weatherlink.com 1.10,2013-03-17 12:48:00,
2013-03-17 09:03:00,22.2,15.0,30.18,NNE,24,7.0,-999.0,75,-99.99,,,0.00,weatherlink.com 1.10,2013-03-17 13:03:00,
2013-03-17 09:18:00,22.5,15.0,30.19,NNE,19,9.0,-999.0,73,-99.99,,,0.00,weatherlink.com 1.10,2013-03-17 13:18:00,
2013-03-17 09:33:00,22.9,15.0,30.19,NNE,18,4.0,-999.0,72,-99.99,,,0.00,weatherlink.com 1.10,2013-03-17 13:33:00,
2013-03-17 09:48:00,23.2,15.0,30.20,NNE,17,5.0,-999.0,70,-99.99,,,0.00,weatherlink.com 1.10,2013-03-17 13:48:00,
2013-03-17 10:03:00,23.6,14.0,30.21,NNE,24,6.0,-999.0,66,-99.99,,,0.00,weatherlink.com 1.10,2013-03-17 14:03:00,
2013-03-17 10:18:00,23.8,14.0,30.21,NE,52,4.0,-999.0,65,-99.99,,,0.00,weatherlink.com 1.10,2013-03-17 14:18:00,
2013-03-17 10:33:00,24.1,13.0,30.21,NE,49,6.0,-999.0,64,-99.99,,,0.00,weatherlink.com 1.10,2013-03-17 14:33:00,
2013-03-17 10:48:00,25.0,14.0,30.21,North,5,4.0,-999.0,63,-99.99,,,0.00,weatherlink.com 1.10,2013-03-17 14:48:00,
2013-03-17 11:03:00,24.8,13.0,30.22,North,360,5.0,-999.0,61,-99.99,,,0.00,weatherlink.com 1.10,2013-03-17 15:03:00,
2013-03-17 11:18:00,25.3,14.0,30.22,ENE,68,5.0,-999.0,62,-99.99,,,0.00,weatherlink.com 1.10,2013-03-17 15:18:00,
2013-03-17 11:33:00,25.6,13.0,30.22,North,5,7.0,-999.0,60,-99.99,,,0.00,weatherlink.com 1.10,2013-03-17 15:33:00,
2013-03-17 11:48:00,26.1,15.0,30.22,NNE,27,7.0,-999.0,62,-99.99,,,0.00,weatherlink.com 1.10,2013-03-17 15:48:00,
2013-03-17 12:03:00,25.8,14.0,30.22,ENE,76,2.0,-999.0,60,-99.99,,,0.00,weatherlink.com 1.10,2013-03-17 16:03:00,
2013-03-17 12:18:00,26.0,14.0,30.22,ENE,76,6.0,-999.0,60,-99.99,,,0.00,weatherlink.com 1.10,2013-03-17 16:18:00,
2013-03-17 12:33:00,25.7,13.0,30.22,ENE,74,2.0,-999.0,59,-99.99,,,0.00,weatherlink.com 1.10,2013-03-17 16:33:00,
2013-03-17 12:48:00,25.8,12.0,30.22,East,83,5.0,-999.0,56,-99.99,,,0.00,weatherlink.com 1.10,2013-03-17 16:48:00,
2013-03-17 13:03:00,26.7,14.0,30.22,ENE,63,3.0,-999.0,58,-99.99,,,0.00,weatherlink.com 1.10,2013-03-17 17:03:00,
2013-03-17 13:18:00,26.6,13.0,30.22,ENE,61,5.0,-999.0,57,-99.99,,,0.01,weatherlink.com 1.10,2013-03-17 17:18:00,
2013-03-17 13:33:00,26.7,13.0,30.22,East,90,4.0,-999.0,56,-99.99,,,0.01,weatherlink.com 1.10,2013-03-17 17:33:00,
2013-03-17 13:48:00,26.9,13.0,30.22,East,99,6.0,-999.0,56,-99.99,,,0.01,weatherlink.com 1.10,2013-03-17 17:48:00,
2013-03-17 14:03:00,27.2,13.0,30.21,ENE,69,5.0,-999.0,56,-99.99,,,0.01,weatherlink.com 1.10,2013-03-17 18:03:00,
2013-03-17 14:18:00,27.6,13.0,30.21,NE,43,2.0,-999.0,55,-99.99,,,0.01,weatherlink.com 1.10,2013-03-17 18:18:00,
2013-03-17 14:33:00,28.5,14.0,30.20,NE,46,1.0,-999.0,55,-99.99,,,0.01,weatherlink.com 1.10,2013-03-17 18:33:00,
2013-03-17 14:48:00,28.2,13.0,30.20,ENE,72,6.0,-999.0,54,-99.99,,,0.02,weatherlink.com 1.10,2013-03-17 18:48:00,
2013-03-17 15:03:00,28.7,13.0,30.20,ENE,73,4.0,-999.0,53,-99.99,,,0.02,weatherlink.com 1.10,2013-03-17 19:03:00,
2013-03-17 15:18:00,29.5,13.0,30.19,East,80,5.0,-999.0,51,-99.99,,,0.03,weatherlink.com 1.10,2013-03-17 19:18:00,
2013-03-17 15:48:00,30.3,16.0,30.19,ENE,71,2.0,-999.0,55,-99.99,,,0.03,weatherlink.com 1.10,2013-03-17 19:48:00,
2013-03-17 16:03:00,30.6,16.0,30.19,East,98,3.0,-999.0,55,-99.99,,,0.03,weatherlink.com 1.10,2013-03-17 20:03:00,
2013-03-17 16:18:00,31.0,16.0,30.19,NNE,17,9.0,-999.0,53,-99.99,,,0.04,weatherlink.com 1.10,2013-03-17 20:18:00,
2013-03-17 16:33:00,30.6,17.0,30.18,North,360,3.0,-999.0,57,-99.99,,,0.04,weatherlink.com 1.10,2013-03-17 20:33:00,
2013-03-17 16:48:00,29.8,16.0,30.18,East,80,2.0,-999.0,56,-99.99,,,0.04,weatherlink.com 1.10,2013-03-17 20:48:00,
2013-03-17 17:03:00,29.8,16.0,30.17,East,96,5.0,-999.0,57,-99.99,,,0.04,weatherlink.com 1.10,2013-03-17 21:03:00,
2013-03-17 17:18:00,30.3,18.0,30.18,SE,133,2.0,-999.0,60,-99.99,,,0.04,weatherlink.com 1.10,2013-03-17 21:18:00,
2013-03-17 17:33:00,30.0,18.0,30.18,ESE,119,5.0,-999.0,62,-99.99,,,0.04,weatherlink.com 1.10,2013-03-17 21:33:00,
2013-03-17 17:48:00,29.7,19.0,30.18,SSE,163,6.0,-999.0,64,-99.99,,,0.04,weatherlink.com 1.10,2013-03-17 21:48:00,
2013-03-17 18:03:00,29.3,18.0,30.18,ESE,119,4.0,-999.0,62,-99.99,,,0.04,weatherlink.com 1.10,2013-03-17 22:03:00,
2013-03-17 18:18:00,29.5,18.0,30.18,ESE,121,3.0,-999.0,62,-99.99,,,0.04,weatherlink.com 1.10,2013-03-17 22:18:00,
2013-03-17 18:33:00,29.1,18.0,30.18,East,96,2.0,-999.0,63,-99.99,,,0.04,weatherlink.com 1.10,2013-03-17 22:33:00,
2013-03-17 18:48:00,28.7,17.0,30.18,East,82,10.0,-999.0,63,-99.99,,,0.04,weatherlink.com 1.10,2013-03-17 22:48:00,
2013-03-17 19:03:00,28.8,18.0,30.18,ESE,107,5.0,-999.0,65,-99.99,,,0.04,weatherlink.com 1.10,2013-03-17 23:03:00,
2013-03-17 19:18:00,28.4,17.0,30.18,East,86,6.0,-999.0,63,-99.99,,,0.04,weatherlink.com 1.10,2013-03-17 23:18:00,
2013-03-17 19:33:00,27.5,17.0,30.18,East,79,6.0,-999.0,66,-99.99,,,0.04,weatherlink.com 1.10,2013-03-17 23:33:00,
2013-03-17 19:48:00,27.0,17.0,30.19,East,86,2.0,-999.0,67,-99.99,,,0.04,weatherlink.com 1.10,2013-03-17 23:48:00,
2013-03-17 20:18:00,26.1,16.0,30.20,East,86,2.0,-999.0,67,-99.99,,,0.04,weatherlink.com 1.10,2013-03-18 00:18:00,
2013-03-17 20:33:00,26.0,16.0,30.20,ESE,109,5.0,-999.0,67,-99.99,,,0.04,weatherlink.com 1.10,2013-03-18 00:33:00,
2013-03-17 20:48:00,25.7,16.0,30.20,ENE,59,4.0,-999.0,66,-99.99,,,0.04,weatherlink.com 1.10,2013-03-18 00:48:00,
2013-03-17 21:03:00,25.6,16.0,30.20,ESE,115,2.0,-999.0,67,-99.99,,,0.04,weatherlink.com 1.10,2013-03-18 01:03:00,
2013-03-17 21:18:00,25.7,16.0,30.19,East,99,3.0,-999.0,67,-99.99,,,0.04,weatherlink.com 1.10,2013-03-18 01:18:00,
2013-03-17 21:33:00,25.4,16.0,30.20,ESE,112,5.0,-999.0,68,-99.99,,,0.04,weatherlink.com 1.10,2013-03-18 01:33:00,
2013-03-17 21:48:00,25.3,16.0,30.20,ENE,73,2.0,-999.0,69,-99.99,,,0.04,weatherlink.com 1.10,2013-03-18 01:48:00,
2013-03-17 22:03:00,25.1,16.0,30.19,ENE,72,2.0,-999.0,69,-99.99,,,0.04,weatherlink.com 1.10,2013-03-18 02:03:00,
2013-03-17 22:18:00,25.0,17.0,30.18,ENE,72,3.0,-999.0,70,-99.99,,,0.04,weatherlink.com 1.10,2013-03-18 02:18:00,
2013-03-17 22:33:00,25.0,17.0,30.17,East,88,3.0,-999.0,70,-99.99,,,0.04,weatherlink.com 1.10,2013-03-18 02:33:00,
2013-03-17 22:48:00,24.8,16.0,30.16,NE,55,2.0,-999.0,70,-99.99,,,0.04,weatherlink.com 1.10,2013-03-18 02:48:00,
2013-03-17 23:03:00,24.7,17.0,30.16,ENE,78,3.0,-999.0,72,-99.99,,,0.04,weatherlink.com 1.10,2013-03-18 03:03:00,
2013-03-17 23:18:00,24.4,17.0,30.15,ENE,67,4.0,-999.0,73,-99.99,,,0.04,weatherlink.com 1.10,2013-03-18 03:18:00,
2013-03-17 23:33:00,24.1,17.0,30.14,East,83,5.0,-999.0,73,-99.99,,,0.04,weatherlink.com 1.10,2013-03-18 03:33:00,
2013-03-17 23:48:00,23.9,16.0,30.14,East,90,2.0,-999.0,73,-99.99,,,0.04,weatherlink.com 1.10,2013-03-18 03:48:00,